EW7526 Weather Reports


Display with metric or nautical units.
time (UTC)temp
F
wind
direction
speed
MPH
gust
MPH
rain 1hr
in
rain 24hr
in
rain mn
in
humidity
%
barometer
mb
20180222190606 55 141 2.0 7.0 0.00 0.00 0.00 18 1021.8
20180222190106 56 183 5.0 9.0 0.00 0.00 0.00 18 1021.8
20180222185605 56 233 5.0 6.0 0.00 0.00 0.00 18 1021.9
20180222185106 56 158 6.0 6.0 0.00 0.00 0.00 18 1021.9
20180222184606 55 191 2.0 5.0 0.00 0.00 0.00 18 1021.9
20180222184106 55 197 2.0 6.0 0.00 0.00 0.00 18 1021.9
20180222183606 56 151 3.0 7.0 0.00 0.00 0.00 18 1021.9
20180222183106 56 164 3.0 8.0 0.00 0.00 0.00 18 1022.0
20180222182605 55 171 4.0 6.0 0.00 0.00 0.00 18 1022.0
20180222182106 54 208 1.0 6.0 0.00 0.00 0.00 18 1021.9
20180222181606 55 148 3.0 6.0 0.00 0.00 0.00 18 1021.9
20180222181106 55 165 3.0 7.0 0.00 0.00 0.00 18 1021.9
20180222180606 55 181 3.0 5.0 0.00 0.00 0.00 18 1022.0
20180222180106 54 92 0.0 2.0 0.00 0.00 0.00 20 1022.0
20180222175606 54 261 2.0 5.0 0.00 0.00 0.00 20 1022.1
20180222175106 54 228 1.0 5.0 0.00 0.00 0.00 20 1022.1
20180222174605 53 205 2.0 6.0 0.00 0.00 0.00 20 1022.1
20180222174105 53 182 2.0 3.0 0.00 0.00 0.00 20 1022.0
20180222173606 53 192 2.0 6.0 0.00 0.00 0.00 20 1022.0
20180222173106 52 205 3.0 5.0 0.00 0.00 0.00 20 1021.9
20180222172605 52 164 5.0 8.0 0.00 0.00 0.00 20 1021.9
20180222172106 53 177 2.0 5.0 0.00 0.00 0.00 20 1021.7
20180222171605 52 175 1.0 3.0 0.00 0.00 0.00 20 1021.7
20180222171106 52 145 5.0 6.0 0.00 0.00 0.00 21 1021.7
20180222170605 52 151 1.0 5.0 0.00 0.00 0.00 21 1021.6
20180222170106 52 156 2.0 5.0 0.00 0.00 0.00 21 1021.6
20180222165605 52 170 1.0 5.0 0.00 0.00 0.00 22 1021.5
20180222165106 52 160 1.0 3.0 0.00 0.00 0.00 22 1021.5
20180222164606 51 168 0.0 2.0 0.00 0.00 0.00 23 1021.5
20180222164105 50 190 0.0 0.0 0.00 0.00 0.00 23 1021.4
20180222163606 51 163 0.0 0.0 0.00 0.00 0.00 23 1021.4
20180222163105 50 147 2.0 3.0 0.00 0.00 0.00 24 1021.3
20180222162605 50 204 0.0 5.0 0.00 0.00 0.00 24 1021.3
20180222162106 49 150 0.0 5.0 0.00 0.00 0.00 24 1021.2
20180222161605 49 158 0.0 0.0 0.00 0.00 0.00 24 1021.2
20180222161106 50 146 0.0 0.0 0.00 0.00 0.00 26 1021.2
20180222160606 49 163 0.0 0.0 0.00 0.00 0.00 26 1021.1
20180222160106 47 190 0.0 0.0 0.00 0.00 0.00 28 1021.1
20180222155605 47 179 0.0 0.0 0.00 0.00 0.00 28 1021.1
20180222155106 46 197 0.0 0.0 0.00 0.00 0.00 28 1021.1
20180222154606 44 176 0.0 0.0 0.00 0.00 0.00 31 1020.9
20180222154105 43 205 0.0 0.0 0.00 0.00 0.00 33 1020.8
20180222153606 40 140 0.0 0.0 0.00 0.00 0.00 36 1020.8
20180222153105 38 98 0.0 0.0 0.00 0.00 0.00 39 1020.5
20180222152605 38 42 0.0 0.0 0.00 0.00 0.00 39 1020.5
20180222152105 37 7 0.0 0.0 0.00 0.00 0.00 39 1020.5
20180222151606 37 42 0.0 0.0 0.00 0.00 0.00 40 1020.5
20180222151105 36 16 0.0 0.0 0.00 0.00 0.00 41 1020.5
20180222150605 35 16 0.0 0.0 0.00 0.00 0.00 41 1020.3
20180222150106 35 21 0.0 0.0 0.00 0.00 0.00 41 1020.3
20180222145606 35 22 0.0 0.0 0.00 0.00 0.00 41 1020.1
20180222145106 34 27 0.0 0.0 0.00 0.00 0.00 42 1020.1
20180222144605 34 25 0.0 0.0 0.00 0.00 0.00 43 1020.0
20180222144106 34 27 0.0 0.0 0.00 0.00 0.00 44 1020.0
20180222143605 33 32 0.0 0.0 0.00 0.00 0.00 45 1020.0
20180222143105 33 50 0.0 0.0 0.00 0.00 0.00 46 1019.7
20180222142606 32 25 0.0 0.0 0.00 0.00 0.00 46 1019.7
20180222142106 33 53 0.0 0.0 0.00 0.00 0.00 45 1019.5
20180222141607 33 158 0.0 0.0 0.00 0.00 0.00 44 1019.5
20180222141106 34 202 0.0 0.0 0.00 0.00 0.00 43 1019.5
20180222140606 34 194 0.0 0.0 0.00 0.00 0.00 43 1019.3
20180222140106 34 119 0.0 0.0 0.00 0.00 0.00 42 1019.3
20180222135606 35 202 0.0 0.0 0.00 0.00 0.00 41 1019.1
20180222135106 35 180 0.0 0.0 0.00 0.00 0.00 40 1019.1
20180222134606 35 61 0.0 0.0 0.00 0.00 0.00 41 1019.1
20180222134105 35 9 0.0 0.0 0.00 0.00 0.00 41 1019.1
20180222133605 35 84 0.0 0.0 0.00 0.00 0.00 42 1019.1
20180222133106 35 22 0.0 0.0 0.00 0.00 0.00 42 1018.9
20180222132606 35 29 0.0 0.0 0.00 0.00 0.00 42 1018.9
20180222132106 35 45 0.0 0.0 0.00 0.00 0.00 42 1018.8
20180222131605 34 33 0.0 0.0 0.00 0.00 0.00 43 1018.8
20180222131106 34 29 0.0 0.0 0.00 0.00 0.00 43 1018.8
20180222130605 34 28 0.0 0.0 0.00 0.00 0.00 44 1018.7
20180222130106 34 40 0.0 0.0 0.00 0.00 0.00 45 1018.7
20180222125606 33 27 0.0 0.0 0.00 0.00 0.00 46 1018.7
20180222125105 32 39 0.0 0.0 0.00 0.00 0.00 49 1018.7
20180222124606 32 40 0.0 0.0 0.00 0.00 0.00 49 1018.6
20180222124105 32 29 0.0 0.0 0.00 0.00 0.00 49 1018.5
20180222123605 32 45 0.0 0.0 0.00 0.00 0.00 48 1018.5
20180222123106 33 178 0.0 0.0 0.00 0.00 0.00 48 1018.3
20180222122605 34 58 0.0 0.0 0.00 0.00 0.00 48 1018.3
20180222122105 34 181 0.0 0.0 0.00 0.00 0.00 45 1018.0
20180222121606 33 112 0.0 0.0 0.00 0.00 0.00 47 1018.0
20180222121105 33 109 0.0 0.0 0.00 0.00 0.00 49 1018.0
20180222120605 33 99 0.0 0.0 0.00 0.00 0.00 48 1018.2
20180222120106 34 87 0.0 0.0 0.00 0.00 0.00 46 1018.2
20180222115606 34 155 0.0 0.0 0.00 0.00 0.00 44 1018.1
20180222115106 34 86 0.0 0.0 0.00 0.00 0.00 43 1018.1
20180222114606 35 107 0.0 0.0 0.00 0.00 0.00 42 1018.1
20180222114106 35 108 0.0 0.0 0.00 0.00 0.00 42 1018.1
20180222113607 34 45 0.0 0.0 0.00 0.00 0.00 43 1018.1
20180222113106 35 45 0.0 0.0 0.00 0.00 0.00 42 1017.9
20180222112106 37 116 0.0 0.0 0.00 0.00 0.00 38 1017.8
20180222111606 37 69 0.0 0.0 0.00 0.00 0.00 38 1017.8
20180222111106 37 158 0.0 0.0 0.00 0.00 0.00 34 1017.8
20180222110606 37 152 0.0 0.0 0.00 0.00 0.00 35 1017.6
20180222110106 37 135 0.0 0.0 0.00 0.00 0.00 36 1017.6
20180222105606 37 50 0.0 0.0 0.00 0.00 0.00 36 1017.6
20180222105105 38 178 0.0 0.0 0.00 0.00 0.00 35 1017.6
20180222104606 38 66 0.0 0.0 0.00 0.00 0.00 35 1017.5
20180222104106 39 71 0.0 0.0 0.00 0.00 0.00 34 1017.5
20180222103605 39 90 0.0 0.0 0.00 0.00 0.00 35 1017.5
20180222103105 39 45 0.0 0.0 0.00 0.00 0.00 35 1017.5
20180222102606 39 27 0.0 0.0 0.00 0.00 0.00 35 1017.5
20180222102105 38 3 0.0 0.0 0.00 0.00 0.00 37 1017.5
20180222101606 38 23 0.0 0.0 0.00 0.00 0.00 37 1017.5
20180222101106 38 26 0.0 0.0 0.00 0.00 0.00 37 1017.5
20180222100606 37 22 0.0 0.0 0.00 0.00 0.00 38 1017.4
20180222100106 37 44 0.0 0.0 0.00 0.00 0.00 39 1017.4
20180222095606 37 25 0.0 0.0 0.00 0.00 0.00 42 1017.3
20180222095106 37 109 0.0 0.0 0.00 0.00 0.00 42 1017.3
20180222094605 38 45 0.0 0.0 0.00 0.00 0.00 42 1017.3
20180222094106 38 111 0.0 0.0 0.00 0.00 0.00 40 1017.3
20180222093606 39 135 0.0 0.0 0.00 0.00 0.00 39 1017.3
20180222093106 39 118 0.0 0.0 0.00 0.00 0.00 39 1017.3
20180222092607 39 121 0.0 0.0 0.00 0.00 0.00 39 1017.3
20180222092107 39 136 0.0 0.0 0.00 0.00 0.00 39 1017.2
20180222091606 39 66 0.0 0.0 0.00 0.00 0.00 40 1017.2
20180222091105 39 70 0.0 0.0 0.00 0.00 0.00 40 1017.2
20180222090605 38 109 0.0 0.0 0.00 0.00 0.00 41 1017.2
20180222090106 38 45 0.0 0.0 0.00 0.00 0.00 41 1017.2
20180222085605 40 107 0.0 0.0 0.00 0.00 0.00 38 1017.2
20180222085106 40 143 0.0 0.0 0.00 0.00 0.00 39 1017.2
20180222084606 41 109 0.0 0.0 0.00 0.00 0.00 38 1017.2
20180222084106 41 196 0.0 0.0 0.00 0.00 0.00 36 1017.2
20180222083606 41 179 0.0 0.0 0.00 0.00 0.00 34 1017.2
20180222083106 41 112 0.0 0.0 0.00 0.00 0.00 34 1017.2
20180222082605 41 77 0.0 0.0 0.00 0.00 0.00 36 1017.2
20180222082106 41 71 0.0 0.0 0.00 0.00 0.00 36 1017.3
20180222081606 41 178 0.0 0.0 0.00 0.00 0.00 35 1017.3
20180222081106 41 122 0.0 0.0 0.00 0.00 0.00 34 1017.3
20180222080606 41 112 0.0 0.0 0.00 0.00 0.00 36 1017.2
20180222075606 42 163 0.0 0.0 0.00 0.00 0.00 34 1017.2
20180222075106 42 158 0.0 0.0 0.00 0.00 0.00 32 1017.2
20180222074607 41 158 0.0 0.0 0.00 0.00 0.00 32 1017.2
20180222074105 41 112 0.0 0.0 0.00 0.00 0.00 32 1017.2
20180222073605 42 135 0.0 0.0 0.00 0.00 0.00 35 1017.2
20180222073105 42 135 0.0 0.0 0.00 0.00 0.00 35 1017.0
20180222072606 41 94 0.0 0.0 0.00 0.00 0.00 36 1017.0
20180222072106 42 46 0.0 0.0 0.00 0.00 0.00 34 1017.1
20180222071606 41 82 0.0 0.0 0.00 0.00 0.00 33 1017.1
20180222071106 42 137 0.0 0.0 0.00 0.00 0.00 33 1017.1
20180222070605 42 180 0.0 0.0 0.00 0.00 0.00 32 1017.2
20180222070107 42 89 0.0 0.0 0.00 0.00 0.00 33 1017.2
20180222065606 43 154 0.0 0.0 0.00 0.00 0.00 31 1017.0
20180222065105 43 133 0.0 0.0 0.00 0.00 0.00 30 1017.0
20180222064606 42 135 0.0 0.0 0.00 0.00 0.00 29 1017.1
20180222064105 42 77 0.0 0.0 0.00 0.00 0.00 30 1017.2
20180222063606 42 87 0.0 0.0 0.00 0.00 0.00 30 1017.2
20180222063105 42 98 0.0 0.0 0.00 0.00 0.00 30 1017.1
20180222062606 42 112 0.0 0.0 0.00 0.00 0.00 30 1017.1
20180222062105 42 100 0.0 0.0 0.00 0.00 0.00 29 1017.2
20180222061605 43 115 0.0 0.0 0.00 0.00 0.00 29 1017.2
20180222061105 42 51 0.0 0.0 0.00 0.00 0.00 28 1017.2
20180222060606 42 34 0.0 0.0 0.00 0.00 0.00 29 1017.2
20180222060107 43 155 0.0 0.0 0.00 0.00 0.00 29 1017.2
20180222055606 42 65 0.0 0.0 0.00 0.00 0.00 29 1017.2
20180222055106 42 45 0.0 0.0 0.00 0.00 0.00 29 1017.2
20180222054606 43 92 0.0 0.0 0.00 0.00 0.00 28 1017.3
20180222054105 42 77 0.0 0.0 0.00 0.00 0.00 28 1017.3
20180222053605 43 53 0.0 0.0 0.00 0.00 0.00 28 1017.3
20180222053106 43 59 0.0 0.0 0.00 0.00 0.00 29 1017.4
20180222052606 43 112 0.0 0.0 0.00 0.00 0.00 28 1017.4
20180222052106 43 180 0.0 0.0 0.00 0.00 0.00 29 1017.2
20180222051606 44 173 0.0 0.0 0.00 0.00 0.00 28 1017.2
20180222051105 44 142 0.0 0.0 0.00 0.00 0.00 25 1017.2
20180222050605 45 112 0.0 0.0 0.00 0.00 0.00 25 1017.4
20180222050106 45 165 0.0 0.0 0.00 0.00 0.00 23 1017.4
20180222045605 45 146 0.0 0.0 0.00 0.00 0.00 23 1017.1
20180222045110 46 159 0.0 0.0 0.00 0.00 0.00 22 1017.1
20180222044609 46 158 0.0 0.0 0.00 0.00 0.00 22 1017.1
20180222044107 47 198 0.0 0.0 0.00 0.00 0.00 22 1017.0
20180222043606 47 192 0.0 0.0 0.00 0.00 0.00 22 1017.0
20180222043106 47 180 0.0 0.0 0.00 0.00 0.00 22 1017.1
20180222042613 46 180 0.0 0.0 0.00 0.00 0.00 23 1017.1
20180222042106 46 173 0.0 0.0 0.00 0.00 0.00 23 1017.1
20180222041606 46 142 0.0 0.0 0.00 0.00 0.00 23 1017.1
20180222041106 46 81 0.0 0.0 0.00 0.00 0.00 25 1017.1
20180222040606 46 176 0.0 0.0 0.00 0.00 0.00 25 1017.0
20180222040107 46 105 0.0 0.0 0.00 0.00 0.00 25 1017.0
20180222035606 46 167 0.0 0.0 0.00 0.00 0.00 24 1016.9
20180222035106 46 171 0.0 0.0 0.00 0.00 0.00 24 1016.9
20180222034606 46 135 0.0 0.0 0.00 0.00 0.00 24 1016.8
20180222034105 47 120 0.0 0.0 0.00 0.00 0.00 22 1016.8
20180222033606 47 130 0.0 0.0 0.00 0.00 0.00 22 1016.8
20180222033106 48 175 0.0 0.0 0.00 0.00 0.00 20 1016.7
20180222032605 49 173 0.0 0.0 0.00 0.00 0.00 20 1016.7
20180222032106 49 180 0.0 0.0 0.00 0.00 0.00 20 1016.6
20180222031606 49 184 0.0 0.0 0.00 0.00 0.00 19 1016.6
20180222031105 50 204 0.0 0.0 0.00 0.00 0.00 19 1016.6
20180222030606 50 203 0.0 0.0 0.00 0.00 0.00 19 1016.7
20180222030107 50 213 0.0 0.0 0.00 0.00 0.00 18 1016.7
20180222025606 50 193 0.0 0.0 0.00 0.00 0.00 18 1016.6
20180222025106 50 218 0.0 0.0 0.00 0.00 0.00 18 1016.6
20180222024605 51 216 0.0 0.0 0.00 0.00 0.00 18 1016.6
20180222024106 51 202 0.0 0.0 0.00 0.00 0.00 18 1016.7
20180222023606 51 206 0.0 0.0 0.00 0.00 0.00 18 1016.7
20180222023105 51 201 0.0 0.0 0.00 0.00 0.00 18 1016.6
20180222022606 51 167 0.0 0.0 0.00 0.00 0.00 18 1016.6
20180222022106 51 210 0.0 0.0 0.00 0.00 0.00 18 1016.6
20180222021605 51 207 0.0 0.0 0.00 0.00 0.00 18 1016.6
20180222021105 51 205 0.0 0.0 0.00 0.00 0.00 18 1016.6
20180222020605 51 199 0.0 0.0 0.00 0.00 0.00 18 1016.6
20180222020106 52 232 0.0 0.0 0.00 0.00 0.00 18 1016.6
20180222015605 52 208 0.0 0.0 0.00 0.00 0.00 18 1016.5
20180222015106 52 219 0.0 0.0 0.00 0.00 0.00 18 1016.5
20180222014606 52 208 0.0 0.0 0.00 0.00 0.00 18 1016.5
20180222014105 53 183 0.0 0.0 0.00 0.00 0.00 18 1016.5
20180222013605 53 201 0.0 0.0 0.00 0.00 0.00 18 1016.5
20180222013105 53 213 0.0 2.0 0.00 0.00 0.00 18 1016.4
20180222012606 53 222 3.0 6.0 0.00 0.00 0.00 18 1016.4
20180222012106 54 202 0.0 5.0 0.00 0.00 0.00 18 1016.2
20180222011606 54 175 2.0 5.0 0.00 0.00 0.00 18 1016.2
20180222011106 54 204 2.0 6.0 0.00 0.00 0.00 18 1016.2
20180222010605 54 203 3.0 9.0 0.00 0.00 0.00 18 1016.1
20180222010107 54 241 3.0 7.0 0.00 0.00 0.00 18 1016.1
20180222005605 55 212 3.0 5.0 0.00 0.00 0.00 18 1016.1
20180222005106 55 181 2.0 6.0 0.00 0.00 0.00 18 1016.1
20180222004606 55 214 1.0 5.0 0.00 0.00 0.00 18 1016.1
20180222004106 55 208 1.0 6.0 0.00 0.00 0.00 18 1016.1
20180222003606 55 212 1.0 5.0 0.00 0.00 0.00 18 1016.1
20180222003106 55 200 3.0 6.0 0.00 0.00 0.00 18 1016.0
20180222002605 56 216 5.0 7.0 0.00 0.00 0.00 18 1016.0
20180222002105 55 180 0.0 5.0 0.00 0.00 0.00 18 1016.0
20180222001606 56 199 4.0 6.0 0.00 0.00 0.00 18 1016.0
20180222001106 56 128 3.0 6.0 0.00 0.00 0.00 18 1016.0
20180222000605 56 162 3.0 6.0 0.00 0.00 0.00 18 1015.9
20180222000106 56 185 0.0 3.0 0.00 0.00 0.00 18 1015.9
20180221235606 56 200 0.0 1.0 0.00 0.00 0.00 18 1015.7
20180221235106 56 231 3.0 6.0 0.00 0.00 0.00 18 1015.7
20180221234606 57 229 3.0 6.0 0.00 0.00 0.00 18 1015.7
20180221234106 57 219 3.0 8.0 0.00 0.00 0.00 18 1015.8
20180221233606 58 202 0.0 3.0 0.00 0.00 0.00 17 1015.8
20180221233105 58 201 5.0 8.0 0.00 0.00 0.00 17 1015.9
20180221232606 59 196 4.0 6.0 0.00 0.00 0.00 17 1015.9
20180221232106 59 231 2.0 6.0 0.00 0.00 0.00 17 1015.9
20180221231606 59 197 5.0 6.0 0.00 0.00 0.00 17 1015.9
20180221231105 57 270 0.0 2.0 0.00 0.00 0.00 17 1015.9
20180221230606 59 194 0.0 5.0 0.00 0.00 0.00 17 1015.9
20180221230106 59 184 5.0 9.0 0.00 0.00 0.00 17 1015.9
20180221225606 60 182 5.0 8.0 0.00 0.00 0.00 17 1016.1
20180221225106 61 238 4.0 7.0 0.00 0.00 0.00 17 1016.1
20180221224606 60 50 2.0 5.0 0.00 0.00 0.00 17 1016.1
20180221224106 58 235 2.0 7.0 0.00 0.00 0.00 17 1016.1
20180221223606 59 215 5.0 8.0 0.00 0.00 0.00 17 1016.1
20180221223105 59 205 4.0 6.0 0.00 0.00 0.00 17 1016.0
20180221222605 59 188 5.0 7.0 0.00 0.00 0.00 17 1016.0
20180221222105 60 120 3.0 6.0 0.00 0.00 0.00 19 1016.1
20180221221606 59 141 7.0 10.0 0.00 0.00 0.00 19 1016.1
20180221221106 59 230 6.0 9.0 0.00 0.00 0.00 19 1016.1
20180221220605 58 278 0.0 6.0 0.00 0.00 0.00 19 1016.1
20180221220106 59 180 8.0 8.0 0.00 0.00 0.00 19 1016.1
20180221215606 59 180 8.0 9.0 0.00 0.00 0.00 19 1016.3
20180221215106 59 181 6.0 8.0 0.00 0.00 0.00 19 1016.3
20180221214605 59 9 2.0 3.0 0.00 0.00 0.00 19 1016.3
20180221214106 59 170 5.0 8.0 0.00 0.00 0.00 19 1016.4
20180221213606 59 255 3.0 6.0 0.00 0.00 0.00 19 1016.4
20180221213105 59 157 3.0 6.0 0.00 0.00 0.00 20 1016.2
20180221212605 59 180 5.0 8.0 0.00 0.00 0.00 20 1016.2
20180221212106 58 188 5.0 8.0 0.00 0.00 0.00 20 1016.6
20180221211606 58 175 4.0 6.0 0.00 0.00 0.00 20 1016.6
20180221211105 57 175 3.0 7.0 0.00 0.00 0.00 20 1016.6
20180221210606 58 228 6.0 10.0 0.00 0.00 0.00 20 1016.7
20180221210107 59 196 4.0 8.0 0.00 0.00 0.00 20 1016.7
20180221205606 60 195 3.0 8.0 0.00 0.00 0.00 20 1016.8
20180221205105 58 241 5.0 8.0 0.00 0.00 0.00 20 1016.8
20180221204606 58 203 4.0 8.0 0.00 0.00 0.00 20 1016.9
20180221204105 58 193 5.0 10.0 0.00 0.00 0.00 20 1017.0
20180221203606 57 171 4.0 7.0 0.00 0.00 0.00 21 1017.0
20180221203106 57 182 6.0 9.0 0.00 0.00 0.00 21 1017.2
20180221202606 56 185 5.0 7.0 0.00 0.00 0.00 21 1017.2
20180221202106 57 203 6.0 9.0 0.00 0.00 0.00 21 1017.3
20180221201606 58 180 6.0 7.0 0.00 0.00 0.00 20 1017.3
20180221201105 58 222 1.0 6.0 0.00 0.00 0.00 20 1017.3
20180221200605 58 175 4.0 6.0 0.00 0.00 0.00 20 1017.3
20180221200106 58 202 4.0 8.0 0.00 0.00 0.00 20 1017.3
20180221195605 58 230 5.0 7.0 0.00 0.00 0.00 20 1017.6
20180221195106 57 264 4.0 7.0 0.00 0.00 0.00 20 1017.6
20180221194605 57 206 5.0 7.0 0.00 0.00 0.00 20 1017.6
20180221194105 58 164 5.0 7.0 0.00 0.00 0.00 20 1017.6
20180221193606 57 196 6.0 9.0 0.00 0.00 0.00 20 1017.6
20180221193105 57 266 2.0 7.0 0.00 0.00 0.00 20 1017.7
20180221192605 57 205 6.0 7.0 0.00 0.00 0.00 20 1017.7
20180221192106 58 153 6.0 8.0 0.00 0.00 0.00 20 1017.8
20180221191605 58 230 6.0 8.0 0.00 0.00 0.00 20 1017.8
20180221191106 57 248 2.0 7.0 0.00 0.00 0.00 20 1017.8